This demonstration page uses our WeatherBlox Daily Observations layout. Learn more.

Left ArrowRight Arrow

36.17497, -115.13722

Hourly Observations for September 14, 2016

Temp ( °F °C ) Dew Point ( °F °C ) Humidity (%) Winds ( mph kmh ) Pressure ( in mb ) Visibility ( mi km ) Precip ( " mm )
12:53 am 00:53 Clear 69 20.6 33 0.6 26 26 WSW 6 9 29.9 1012 10 16.0934 0 0
1:53 am 01:53 Clear 66 18.9 30 -1.1 26 26 ESE 7 11 29.91 1013 10 16.0934 0 0
2:53 am 02:53 Clear 66 18.9 32 0 28 28 SW 8 13 29.92 1013 10 16.0934 0 0
3:53 am 03:53 Clear 66 18.9 31 -0.6 27 27 Calm 29.93 1014 10 16.0934 0 0
4:53 am 04:53 Clear 64 17.8 33 0.6 32 32 S 3 6 29.95 1014 10 16.0934 0 0
5:53 am 05:53 Clear 63 17.2 32 0 31 31 NE 3 6 29.97 1015 10 16.0934 0 0
6:53 am 06:53 Sunny 64 17.8 33 0.6 32 32 NNW 5 7 30 1016 10 16.0934 0 0
7:53 am 07:53 Sunny 68 20 34 1.1 28 28 N 13 20 30.01 1016 10 16.0934 0 0
8:53 am 08:53 Sunny 72 22.2 34 1.1 25 25 NNW 9 15 30.04 1017 10 16.0934 0 0
9:53 am 09:53 Sunny 75 23.9 34 1.1 22 22 NNW 7 11 30.05 1018 10 16.0934 0 0
10:53 am 10:53 Sunny 79 26.1 32 0 18 18 E 6 9 30.04 1017 10 16.0934 0 0
11:53 am 11:53 Sunny 79 26.1 30 -1.1 17 17 SE 5 7 30.03 1017 10 16.0934 0 0
12:53 pm 12:53 Sunny 80 26.7 27 -2.8 14 14 Calm 30.02 1017 10 16.0934 0 0
1:53 pm 13:53 Sunny 82 27.8 27 -2.8 13 13 SE 8 13 30 1016 10 16.0934 0 0
2:53 pm 14:53 Sunny 84 28.9 27 -2.8 12 12 E 8 13 29.98 1015 10 16.0934 0 0
3:53 pm 15:53 Sunny 84 28.9 27 -2.8 12 12 SE 7 11 29.96 1014 10 16.0934 0 0
4:53 pm 16:53 Sunny 84 28.9 27 -2.8 12 12 SE 8 13 29.95 1014 10 16.0934 0 0
5:53 pm 17:53 Sunny 84 28.9 27 -2.8 12 12 Calm 29.94 1014 10 16.0934 0 0
6:53 pm 18:53 Clear 83 28.3 26 -3.3 12 12 Calm 29.94 1014 10 16.0934 0 0
7:53 pm 19:53 Clear 80 26.7 26 -3.3 14 14 Calm 29.95 1014 10 16.0934 0 0
8:53 pm 20:53 Clear 79 26.1 28 -2.2 15 15 S 6 9 29.96 1015 10 16.0934 0 0
9:53 pm 21:53 Clear 76 24.4 29 -1.7 18 18 N 6 9 29.98 1015 10 16.0934 0 0
10:53 pm 22:53 Clear 73 22.8 30 -1.1 20 20 NW 5 7 29.98 1015 10 16.0934 0 0
11:53 pm 23:53 Clear 70 21.1 30 -1.1 23 23 NW 5 7 29.98 1015 10 16.0934 0 0

Powered by AerisWeather